Location: Karwodrza
(49.9217°N, 21.0454°E)
Time: 06:42:54
(UTC+01:00)

ISS - Pass Details

Date: 24 January 2019
Orbit: 403 x 411 km, 51.6° (Epoch: 18 February)

Event Time Altitude Azimuth Distance (km) Brightness Sun altitude
Rises 19:19:50 0° 249° (WSW) 2,333 1.0 -29.2°
Reaches altitude 10° 19:21:55 10° 248° (WSW) 1,475 -0.3 -29.6°
Enters shadow 19:22:19 13° 248° (WSW) 1,313 -0.6 -29.6°
